Regional Weather Roundup
Issued by NWS Cleveland, OH

Home | Current Version | Previous Version | Text Only | Print | Product List | Glossary Off
Versions: 1 2 3 4 5 6 7 8 9 10 11 12 13 14 15 16 17 18 19 20 21 22 23 24 25 26 27 28 29 30 31 32 33 34 35 36 37 38 39 40 41 42 43 44 45 46 47 48 49 50

000
ASUS41 KCLE 290202
RWRCLE
OHIO REGIONAL WEATHER ROUNDUP
NATIONAL WEATHER SERVICE CLEVELAND, OH
1000 PM EDT SUN MAY 28 2017

NOTE: "FAIR" INDICATES FEW OR NO CLOUDS BELOW 12,000 FEET WITH NO
SIGNIFICANT WEATHER AND/OR OBSTRUCTIONS TO VISIBILITY.

OHZ001>008-015>018-024>027-034-035-043-044-290300-
   NORTHWEST OHIO

CITY           SKY/WX    TMP DP  RH WIND       PRES   REMARKS
DEFIANCE       CLOUDY    64  62  93 SW6       29.73R
FINDLAY        LGT RAIN  63  59  87 S10       29.75R
TOLEDO EXPRESS TSTM      63  63 100 SW7       29.72R FOG
TOLEDO EXEC    CLOUDY    66  63  90 SW12G18   29.72S
LIMA           LGT RAIN  62  60  93 S7        29.75F
$$

OHZ009>014-019>023-028>033-038-089-290300-
   NORTHEAST OHIO

CITY           SKY/WX    TMP DP  RH WIND       PRES   REMARKS
CLE-HOPKINS    TSTM      66  62  87 SW21G28   29.80R
CLE-LAKEFRONT  CLOUDY    64  60  87 SE8       29.73R
CUY CO. ARPT   CLOUDY    64  61  88 S7        29.75R
LORAIN-ELYRIA  HVY RAIN  64  59  83 S9        29.76R
ASHTABULA      CLOUDY    63  63 100 SE5       29.76F
AKRON-CANTON   CLOUDY    65  59  81 CALM      29.77R THUNDER
WOOSTER        LGT RAIN  65  62  90 NW13G23   29.79R
MANSFIELD      LGT RAIN  59  58  96 S9        29.79S
YOUNGSTOWN     TSTM      62  61  96 E12       29.76F FOG
$$

OHZ042-051>053-060>062-070>072-077>081-290300-
  SOUTHWEST OHIO

CITY           SKY/WX    TMP DP  RH WIND       PRES   REMARKS
CINC-COVINGTON LGT RAIN  69  63  81 W6        29.82R
CINC-LUNKEN    MOCLDY    68  65  90 SW6       29.81F
HAMILTON       CLOUDY    68  66  93 W3        29.81S
DAYTON         CLOUDY    65  63  93 SW10      29.80R
WRIGHT-PAT AFB CLOUDY    67  65  93 W10       29.78F
DAYTON GENERAL CLOUDY    65  59  81 SW8       29.80S
WILMINGTON     MOCLDY    68  63  84 S6        29.79F
$$

OHZ036-037-039>041-045>050-054>059-063>069-073>076-082>088-290300-
  CENTRAL AND SOUTHEAST OHIO

CITY           SKY/WX    TMP DP  RH WIND       PRES   REMARKS
COLUMBUS       CLOUDY    73  62  68 SW13      29.78R
OSU AIRPORT    MOCLDY    71  62  73 SW12      29.78R
BOLTON FIELD   CLOUDY    69  63  79 SW8       29.80R
RICKENBACK AFB CLOUDY    70  63  78 SW10      29.80R
NEWARK         CLOUDY    72  59  63 SW8       29.78R
MARION         LGT RAIN  63  59  87 SW6       29.79S
LANCASTER      CLOUDY    73  61  65 SW8       29.80R
ZANESVILLE     CLOUDY    72  63  73 SW7       29.78R
NEW PHILLY     NOT AVBL
$$



USA.gov is the U.S. government's official web portal to all federal, state and local government web resources and services.